WJA007 KSAN-CYVR

Flight info

Callsign WJA007
Flight time N/A
Altitude 34000
Route PADRZ2 IKAYE DCT TESEA DCT SCTRR DCT SNS J126 SAC DCT LMT DCT SEA DCT PAE GRIZZ9
Aircraft B738/M-SDE2E3FGHIRWXY/LB1

Departure

Time 2026-04-26 01:53
Airport San Diego International Airport (KSAN)

Arrival

Time N/A
Airport Vancouver International Airport (CYVR)
Time Latitude Longitude Altitude Speed Heading
2026-04-26 01:33 32.73451 -117.20346 21 ft 0 kts 230°
2026-04-26 01:43 32.73459 -117.20335 25 ft 4 kts 234°
2026-04-26 01:44 32.73473 -117.20308 24 ft 4 kts 231°
2026-04-26 01:44 32.73491 -117.20295 26 ft 4 kts 185°
2026-04-26 01:44 32.73514 -117.20298 23 ft 4 kts 129°
2026-04-26 01:44 32.73520 -117.20325 25 ft 4 kts 91°
2026-04-26 01:45 32.73521 -117.20344 23 ft 2 kts 105°
2026-04-26 01:47 32.73521 -117.20345 23 ft 0 kts 105°
2026-04-26 01:47 32.73515 -117.20314 25 ft 8 kts 105°
2026-04-26 01:47 32.73534 -117.20218 27 ft 17 kts 57°
2026-04-26 01:47 32.73517 -117.20051 29 ft 23 kts 105°
2026-04-26 01:48 32.73473 -117.19871 30 ft 22 kts 104°
2026-04-26 01:48 32.73430 -117.19696 27 ft 22 kts 105°
2026-04-26 01:48 32.73388 -117.19526 30 ft 21 kts 106°
2026-04-26 01:48 32.73348 -117.19361 24 ft 21 kts 106°
2026-04-26 01:49 32.73310 -117.19200 26 ft 20 kts 105°
2026-04-26 01:49 32.73271 -117.19045 27 ft 19 kts 106°
2026-04-26 01:49 32.73235 -117.18895 27 ft 19 kts 107°
2026-04-26 01:49 32.73200 -117.18749 39 ft 18 kts 105°
2026-04-26 01:50 32.73166 -117.18609 25 ft 17 kts 106°
2026-04-26 01:50 32.73133 -117.18474 24 ft 17 kts 105°
2026-04-26 01:50 32.73102 -117.18343 24 ft 16 kts 105°
2026-04-26 01:50 32.73071 -117.18218 25 ft 15 kts 108°
2026-04-26 01:51 32.73041 -117.18098 21 ft 15 kts 105°
2026-04-26 01:51 32.73017 -117.17993 19 ft 10 kts 105°
2026-04-26 01:51 32.72999 -117.17919 21 ft 7 kts 105°
2026-04-26 01:51 32.72984 -117.17861 18 ft 7 kts 109°
2026-04-26 01:52 32.72968 -117.17802 18 ft 9 kts 108°
2026-04-26 01:52 32.72952 -117.17697 19 ft 18 kts 84°
2026-04-26 01:52 32.73028 -117.17634 22 ft 23 kts 296°
2026-04-26 01:52 32.73139 -117.18075 20 ft 90 kts 286°
2026-04-26 01:53 32.73373 -117.19035 26 ft 148 kts 287°
2026-04-26 01:53 32.73689 -117.20306 481 ft 163 kts 284°
2026-04-26 01:53 32.74064 -117.21564 1289 ft 162 kts 287°
2026-04-26 01:53 32.74430 -117.22849 1992 ft 168 kts 285°
2026-04-26 01:54 32.75022 -117.24109 2447 ft 193 kts 311°
2026-04-26 01:54 32.75990 -117.25338 2684 ft 214 kts 306°
2026-04-26 01:54 32.76942 -117.26795 2957 ft 233 kts 303°
2026-04-26 01:54 32.77930 -117.28423 3277 ft 250 kts 302°
2026-04-26 01:55 32.78945 -117.30151 3962 ft 257 kts 302°
2026-04-26 01:55 32.79969 -117.31903 4844 ft 258 kts 304°
2026-04-26 01:55 32.81049 -117.33594 5732 ft 258 kts 306°
2026-04-26 01:55 32.82158 -117.35292 6551 ft 259 kts 306°
2026-04-26 01:56 32.83272 -117.36999 7253 ft 265 kts 306°
2026-04-26 01:56 32.84414 -117.38757 7933 ft 270 kts 305°
2026-04-26 01:56 32.85563 -117.40530 8714 ft 271 kts 304°
2026-04-26 01:56 32.86719 -117.42320 9467 ft 275 kts 303°
2026-04-26 01:57 32.87888 -117.44134 10179 ft 278 kts 303°
2026-04-26 01:57 32.89101 -117.46022 10472 ft 297 kts 303°
2026-04-26 01:57 32.90382 -117.48015 10959 ft 306 kts 303°
2026-04-26 01:57 32.91679 -117.50030 11698 ft 308 kts 302°
2026-04-26 01:58 32.92991 -117.52069 12343 ft 313 kts 302°
2026-04-26 01:58 32.94323 -117.54142 12997 ft 317 kts 301°
2026-04-26 01:58 32.95669 -117.56241 13688 ft 321 kts 301°
2026-04-26 01:58 32.97029 -117.58361 14341 ft 323 kts 301°
2026-04-26 01:59 32.98395 -117.60493 14842 ft 325 kts 301°
2026-04-26 01:59 32.99768 -117.62635 14943 ft 325 kts 301°
2026-04-26 01:59 33.01141 -117.64779 14981 ft 326 kts 301°
2026-04-26 01:59 33.02531 -117.66953 15290 ft 332 kts 301°
2026-04-26 02:00 33.03926 -117.69133 16063 ft 329 kts 301°
2026-04-26 02:00 33.05297 -117.71276 16763 ft 330 kts 301°
2026-04-26 02:00 33.06744 -117.73428 17347 ft 337 kts 307°
2026-04-26 02:00 33.08488 -117.75348 17939 ft 345 kts 313°
2026-04-26 02:01 33.10357 -117.77176 18501 ft 349 kts 314°
2026-04-26 02:01 33.12256 -117.79010 19032 ft 352 kts 313°
2026-04-26 02:01 33.14146 -117.80871 19587 ft 353 kts 311°
2026-04-26 02:01 33.16024 -117.82762 20133 ft 354 kts 310°
2026-04-26 02:02 33.17908 -117.84678 20669 ft 356 kts 310°
2026-04-26 02:02 33.19788 -117.86615 21193 ft 358 kts 308°
2026-04-26 02:02 33.21602 -117.88671 21579 ft 361 kts 306°
2026-04-26 02:02 33.23378 -117.90794 22135 ft 361 kts 304°
2026-04-26 02:03 33.24542 -117.92205 22531 ft 361 kts 304°
2026-04-26 02:03 33.26306 -117.94345 23078 ft 362 kts 303°
2026-04-26 02:03 33.28077 -117.96492 23579 ft 364 kts 303°
2026-04-26 02:03 33.29867 -117.98653 23986 ft 367 kts 303°
2026-04-26 02:04 33.31668 -118.00820 24398 ft 369 kts 303°
2026-04-26 02:04 33.33483 -118.02998 24811 ft 370 kts 303°
2026-04-26 02:04 33.35308 -118.05185 25213 ft 372 kts 303°
2026-04-26 02:04 33.37141 -118.07381 25631 ft 374 kts 303°
2026-04-26 02:05 33.38988 -118.09594 25995 ft 378 kts 304°
2026-04-26 02:05 33.40855 -118.11834 26320 ft 381 kts 304°
2026-04-26 02:05 33.42732 -118.14085 26741 ft 383 kts 304°
2026-04-26 02:05 33.44616 -118.16343 27140 ft 384 kts 304°
2026-04-26 02:06 33.46506 -118.18610 27510 ft 386 kts 304°
2026-04-26 02:06 33.48407 -118.20894 27866 ft 388 kts 304°
2026-04-26 02:06 33.50317 -118.23190 28221 ft 390 kts 304°
2026-04-26 02:06 33.52235 -118.25497 28571 ft 392 kts 304°
2026-04-26 02:07 33.54160 -118.27814 28916 ft 394 kts 304°
2026-04-26 02:07 33.56095 -118.30146 29285 ft 396 kts 304°
2026-04-26 02:07 33.58048 -118.32502 29492 ft 400 kts 304°
2026-04-26 02:07 33.60015 -118.34877 29789 ft 403 kts 304°
2026-04-26 02:08 33.61996 -118.37266 30152 ft 403 kts 304°
2026-04-26 02:08 33.63976 -118.39654 30450 ft 404 kts 304°
2026-04-26 02:08 33.65959 -118.42050 30684 ft 406 kts 304°
2026-04-26 02:08 33.67954 -118.44473 30850 ft 410 kts 304°
2026-04-26 02:09 33.69958 -118.46929 31003 ft 413 kts 304°
2026-04-26 02:09 33.71965 -118.49412 31205 ft 415 kts 304°
2026-04-26 02:09 33.73967 -118.51918 31484 ft 415 kts 304°
2026-04-26 02:09 33.75975 -118.54418 31807 ft 416 kts 305°
2026-04-26 02:10 33.78006 -118.56841 32073 ft 418 kts 306°
2026-04-26 02:10 33.80083 -118.59294 32239 ft 420 kts 306°
2026-04-26 02:10 33.82171 -118.61773 32417 ft 423 kts 305°
2026-04-26 02:10 33.84257 -118.64271 32629 ft 424 kts 305°
2026-04-26 02:11 33.86339 -118.66785 32875 ft 424 kts 305°
2026-04-26 02:11 33.88421 -118.69313 33089 ft 426 kts 305°
2026-04-26 02:11 33.90506 -118.71852 33279 ft 427 kts 305°
2026-04-26 02:11 33.92598 -118.74405 33436 ft 430 kts 306°
2026-04-26 02:12 33.94700 -118.76974 33588 ft 432 kts 306°
2026-04-26 02:12 33.96812 -118.79555 33804 ft 433 kts 306°
2026-04-26 02:12 33.98925 -118.82139 33960 ft 434 kts 306°
2026-04-26 02:13 34.03166 -118.87335 33955 ft 442 kts 306°
2026-04-26 02:13 34.07539 -118.92696 33954 ft 446 kts 306°
2026-04-26 02:14 34.11903 -118.98056 33968 ft 448 kts 307°
2026-04-26 02:14 34.16273 -119.03427 33964 ft 450 kts 308°
2026-04-26 02:15 34.20750 -119.08723 33956 ft 451 kts 308°
2026-04-26 02:15 34.25241 -119.14036 33951 ft 451 kts 308°
2026-04-26 02:16 34.29706 -119.19354 33955 ft 450 kts 308°
2026-04-26 02:16 34.34159 -119.24679 33966 ft 449 kts 308°
2026-04-26 02:17 34.38596 -119.29997 33973 ft 448 kts 308°
2026-04-26 02:17 34.43053 -119.35348 33946 ft 455 kts 308°
2026-04-26 02:18 34.47575 -119.40788 33961 ft 462 kts 309°
2026-04-26 02:18 34.52115 -119.46250 33937 ft 464 kts 309°
2026-04-26 02:19 34.56702 -119.51780 33932 ft 465 kts 309°
2026-04-26 02:19 34.61282 -119.57309 33919 ft 464 kts 309°
2026-04-26 02:20 34.65851 -119.62835 33926 ft 463 kts 309°
2026-04-26 02:20 34.70439 -119.68320 33917 ft 464 kts 311°
2026-04-26 02:21 34.75259 -119.73538 33922 ft 464 kts 313°
2026-04-26 02:21 34.80124 -119.78689 33936 ft 464 kts 313°
2026-04-26 02:22 34.85642 -119.82935 33959 ft 479 kts 332°
2026-04-26 02:22 34.91922 -119.85782 33936 ft 481 kts 334°
2026-04-26 02:23 34.98204 -119.88564 33962 ft 480 kts 334°
2026-04-26 02:23 35.04470 -119.91400 33947 ft 479 kts 334°
2026-04-26 02:24 35.10670 -119.94245 33947 ft 479 kts 334°
2026-04-26 02:24 35.18773 -119.97986 33959 ft 478 kts 334°
2026-04-26 02:25 36.16152 -120.43833 33997 ft 479 kts 336°
2026-04-26 02:25 37.15350 -120.91256 33881 ft 474 kts 337°
2026-04-26 02:26 38.13290 -121.39411 33832 ft 471 kts 338°
2026-04-26 02:26 39.14357 -121.69685 33864 ft 475 kts 360°
2026-04-26 02:27 40.19244 -121.56923 33728 ft 462 kts 353°
2026-04-26 02:27 40.69647 -121.65639 33866 ft 458 kts 346°
2026-04-26 02:27 41.21259 -121.71146 34140 ft 479 kts 356°
2026-04-26 02:27 41.28172 -121.70678 34012 ft 483 kts
2026-04-26 02:28 41.31487 -121.70025 33930 ft 479 kts
2026-04-26 02:28 41.38074 -121.69192 33858 ft 473 kts 357°
2026-04-26 02:29 41.44658 -121.69195 33813 ft 473 kts 353°
2026-04-26 02:29 41.51235 -121.69544 33789 ft 473 kts 352°
2026-04-26 02:30 41.57773 -121.69922 33789 ft 473 kts 353°
2026-04-26 02:30 41.64367 -121.70268 33785 ft 474 kts 353°
2026-04-26 02:31 41.70958 -121.70594 33788 ft 474 kts 353°
2026-04-26 02:31 41.77549 -121.70919 33782 ft 474 kts 354°
2026-04-26 02:32 41.84148 -121.71244 33776 ft 474 kts 354°
2026-04-26 02:32 41.90695 -121.71572 33765 ft 474 kts 353°
2026-04-26 02:33 41.97287 -121.71900 33783 ft 473 kts 354°
2026-04-26 02:33 42.03863 -121.72226 33763 ft 472 kts 354°
2026-04-26 02:34 42.10428 -121.72555 33766 ft 471 kts 354°
2026-04-26 02:34 42.16979 -121.72900 33769 ft 470 kts 353°
2026-04-26 02:35 42.23505 -121.73517 33769 ft 469 kts 351°
2026-04-26 02:35 42.30033 -121.74239 33772 ft 470 kts 351°
2026-04-26 02:36 42.36557 -121.74940 33776 ft 470 kts 352°
2026-04-26 02:36 42.43069 -121.75609 33765 ft 469 kts 352°
2026-04-26 02:37 42.49566 -121.76268 33752 ft 468 kts 352°
2026-04-26 02:37 42.56044 -121.76927 33769 ft 466 kts 353°
2026-04-26 02:38 42.62500 -121.77585 33765 ft 465 kts 352°
2026-04-26 02:38 42.68953 -121.78245 33760 ft 465 kts 352°
2026-04-26 02:39 42.75398 -121.78906 33783 ft 464 kts 353°
2026-04-26 02:39 42.81822 -121.79565 33776 ft 462 kts 353°
2026-04-26 02:40 42.88227 -121.80224 33761 ft 461 kts 353°
2026-04-26 02:40 42.94607 -121.80882 33779 ft 460 kts 353°
2026-04-26 02:41 43.00946 -121.81538 33767 ft 459 kts 353°
2026-04-26 02:41 43.07317 -121.82198 33779 ft 459 kts 353°
2026-04-26 02:42 43.13679 -121.82859 33778 ft 458 kts 353°
2026-04-26 02:42 43.20033 -121.83520 33776 ft 457 kts 353°
2026-04-26 02:43 43.29532 -121.84510 33803 ft 456 kts 353°
2026-04-26 02:43 43.35867 -121.85172 33806 ft 457 kts 354°
2026-04-26 02:44 43.42199 -121.85836 33802 ft 457 kts 354°
2026-04-26 02:44 43.48538 -121.86501 33808 ft 457 kts 354°
2026-04-26 02:45 43.54872 -121.87168 33802 ft 457 kts 354°
2026-04-26 02:45 43.61207 -121.87836 33814 ft 456 kts 354°
2026-04-26 02:46 43.67538 -121.88504 33832 ft 456 kts 354°
2026-04-26 02:46 43.73872 -121.89175 33825 ft 457 kts 354°
2026-04-26 02:47 43.80204 -121.89848 33844 ft 456 kts 354°
2026-04-26 02:47 43.85467 -121.90407 33831 ft 457 kts 354°
2026-04-26 02:48 43.91799 -121.91081 33852 ft 456 kts 354°
2026-04-26 02:48 43.98134 -121.91757 33846 ft 456 kts 355°
2026-04-26 02:49 44.04474 -121.92435 33843 ft 456 kts 355°
2026-04-26 02:49 44.10753 -121.93108 33857 ft 455 kts 355°
2026-04-26 02:50 44.17064 -121.93786 33860 ft 454 kts 355°
2026-04-26 02:50 44.23366 -121.94464 33858 ft 453 kts 355°
2026-04-26 02:51 44.29656 -121.95143 33860 ft 453 kts 355°
2026-04-26 02:51 44.35944 -121.95823 33864 ft 453 kts 355°
2026-04-26 02:52 44.42219 -121.96503 33871 ft 452 kts 355°
2026-04-26 02:52 44.48493 -121.97161 33849 ft 452 kts 356°
2026-04-26 02:53 44.51167 -121.97439 33270 ft 461 kts 356°
2026-04-26 02:53 44.54324 -121.97777 33606 ft 450 kts 356°
2026-04-26 02:53 44.60547 -121.98411 33802 ft 451 kts 356°
2026-04-26 02:54 44.66812 -121.99087 33866 ft 453 kts 356°
2026-04-26 02:54 44.73073 -121.99783 33866 ft 455 kts 355°
2026-04-26 02:55 44.79377 -122.00745 33858 ft 456 kts 349°
2026-04-26 02:55 44.82518 -122.01449 33624 ft 456 kts 351°
2026-04-26 02:55 44.85628 -122.01872 33847 ft 445 kts 355°
2026-04-26 02:56 44.91771 -122.02287 33513 ft 441 kts 356°
2026-04-26 02:56 44.94805 -122.02492 33735 ft 435 kts 356°
2026-04-26 02:56 44.97834 -122.02733 33791 ft 438 kts 355°
2026-04-26 02:57 45.03964 -122.03194 33850 ft 445 kts 354°
2026-04-26 02:57 45.10192 -122.03931 33856 ft 452 kts 354°
2026-04-26 02:58 45.16474 -122.04683 33851 ft 454 kts 354°
2026-04-26 02:58 45.22780 -122.05401 33844 ft 455 kts 355°
2026-04-26 02:59 45.29086 -122.06102 33845 ft 454 kts 355°
2026-04-26 02:59 45.35383 -122.06799 33836 ft 453 kts 355°
2026-04-26 03:00 45.41637 -122.07495 33823 ft 444 kts 355°
2026-04-26 03:00 45.47748 -122.08177 33834 ft 438 kts 355°
2026-04-26 03:01 46.07692 -122.15028 33952 ft 428 kts 355°
2026-04-26 03:01 47.03166 -122.26198 33999 ft 433 kts 356°
2026-04-26 03:02 47.51299 -122.32178 33887 ft 428 kts 355°
2026-04-26 03:02 47.96300 -122.38193 24552 ft 389 kts 355°
2026-04-26 03:02 48.30387 -122.42944 17366 ft 341 kts 357°
2026-04-26 03:02 48.33131 -122.43215 17063 ft 333 kts 358°
2026-04-26 03:03 48.51005 -122.45359 14314 ft 335 kts 357°
2026-04-26 03:03 48.54333 -122.45893 13456 ft 346 kts 354°
2026-04-26 03:03 48.56699 -122.46563 12970 ft 345 kts 349°